sat.trackr.live / text

‹ back to catalog

KUIPER-00032

NORAD 63745 · 2025-088X

PAYLOAD ACTIVE UNKNOWN

§ Identity

Operator
Country
US
Launch date
2025-04-28
Launch site
AFETR
Launch vehicle
Mass (kg)
RCS (m²)

External: N2YO · Heavens-Above · Gunter

§ Orbital elements

Epoch: 2026-05-25T01:23:30.551136Z

Period
93.54 min
Inclination
51.8682°
Eccentricity
0.0004946
Mean motion
15.39450626 rev/d
Perigee alt
444.4 km
Apogee alt
451.1 km
Semi-major
6,825.9 km
B*
3.5839e-4
RAAN
14.2777°
Arg perigee
47.2485°
Mean anomaly
312.8918°
Rev number
6,130

§ Raw data

KUIPER-000321 63745U 25088X   26145.05799249  .00013898  00000+0  35839-3 0  99902 63745  51.8682  14.2777 0004946  47.2485 312.8918 15.39450626 61301

JSON: /api/v1/satellites/63745 · /tle

For live sub-satellite position, see the globe view (requires WebGL).

§ Visibility from observer

Set your observer location to see the next 7 days of passes ≥ 10°. The values pass through the URL so the page stays shareable.

No JS? Fill the form by hand. The geolocation button needs JavaScript.